,,PA_Meas_PMT16A,,PR_Meas_QMR101_102,,RH_Meas_QMH101,,SR_Meas_QMS101,,TA_Meas_QMH101,,GenWind,,GenWind,
time,status,PA,status,PR,status,RH,status,SR,status,TA,status,DirAvg,status,SpdAvg,
2009-11-22, 00:00:04,VALID,918.543,VALID,0,VALID,93.951,VALID,0,VALID,19.6218,VALID,114,VALID,0.830469,
2009-11-22, 00:01:04,VALID,918.554,VALID,0,VALID,93.9357,VALID,0,VALID,19.6428,VALID,114,VALID,0.551953,
2009-11-22, 00:02:04,VALID,918.514,VALID,0,VALID,94.1721,VALID,0,VALID,19.6218,VALID,114,VALID,1.02969,
2009-11-22, 00:03:04,VALID,918.482,VALID,0,VALID,94.3474,VALID,0,VALID,19.6023,VALID,114,VALID,0.96875,
2009-11-22, 00:04:04,VALID,918.47,VALID,0,VALID,94.2102,VALID,0,VALID,19.6038,VALID,114,VALID,0.364062,
2009-11-22, 00:05:04,VALID,918.456,VALID,0,VALID,94.3779,VALID,0,VALID,19.5633,VALID,114,VALID,0.300781,
2009-11-22, 00:06:04,VALID,918.446,VALID,0,VALID,94.1873,VALID,0,VALID,19.5453,VALID,299,VALID,0.656641,
2009-11-22, 00:07:04,VALID,918.487,VALID,0,VALID,94.4617,VALID,0,VALID,19.5243,VALID,53,VALID,0.821094,
2009-11-22, 00:08:04,VALID,918.454,VALID,0,VALID,94.4008,VALID,0,VALID,19.5048,VALID,53,VALID,1.05938,
2009-11-22, 00:09:04,VALID,918.442,VALID,0,VALID,94.5685,VALID,0,VALID,19.5048,VALID,53,VALID,0.881641,
2009-11-22, 00:10:04,VALID,918.424,VALID,0,VALID,94.8277,VALID,0.107441,VALID,19.4853,VALID,59,VALID,0.517187,
2009-11-22, 00:11:04,VALID,918.408,VALID,0,VALID,94.7514,VALID,0.107441,VALID,19.4658,VALID,59,VALID,0.845312,
2009-11-22, 00:12:04,VALID,918.388,VALID,0,VALID,95.003,VALID,0,VALID,19.4463,VALID,59,VALID,0.290234,
2009-11-22, 00:13:04,VALID,918.372,VALID,0,VALID,95.0259,VALID,0,VALID,19.4074,VALID,59,VALID,0.809766,
2009-11-22, 00:14:04,VALID,918.434,VALID,0,VALID,95.1097,VALID,0,VALID,19.3879,VALID,59,VALID,0.804688,
2009-11-22, 00:15:04,VALID,918.405,VALID,0,VALID,95.1402,VALID,0,VALID,19.3893,VALID,59,VALID,0.419922,
2009-11-22, 00:16:04,VALID,918.396,VALID,0,VALID,95.3156,VALID,0,VALID,19.3893,VALID,59,VALID,0.772656,
2009-11-22, 00:17:04,VALID,918.406,VALID,0,VALID,95.5443,VALID,0,VALID,19.3879,VALID,59,VALID,0.328906,
2009-11-22, 00:18:04,VALID,918.434,VALID,0,VALID,95.6739,VALID,0,VALID,19.4088,VALID,59,VALID,0.938281,
2009-11-22, 00:19:04,VALID,918.406,VALID,0,VALID,95.5138,VALID,0,VALID,19.3698,VALID,59,VALID,0.957812,
2009-11-22, 00:20:04,VALID,918.39,VALID,0,VALID,95.5748,VALID,0,VALID,19.3684,VALID,59,VALID,0.396484,
2009-11-22, 00:21:04,VALID,918.399,VALID,0,VALID,95.6967,VALID,0,VALID,19.3684,VALID,59,VALID,0.565234,
2009-11-22, 00:22:04,VALID,918.351,VALID,0,VALID,95.5824,VALID,0,VALID,19.3684,VALID,5,VALID,1.19844,
2009-11-22, 00:23:04,VALID,918.36,VALID,0,VALID,95.59,VALID,0,VALID,19.3698,VALID,5,VALID,0.655078,
2009-11-22, 00:24:04,VALID,918.317,VALID,0,VALID,95.4757,VALID,0,VALID,19.3684,VALID,17,VALID,1.78867,
2009-11-22, 00:25:04,VALID,918.31,VALID,0,VALID,95.3232,VALID,0,VALID,19.3684,VALID,42,VALID,1.29766,
2009-11-22, 00:26:04,VALID,918.31,VALID,0,VALID,95.1097,VALID,0,VALID,19.3684,VALID,25,VALID,1.3125,
2009-11-22, 00:27:04,VALID,918.323,VALID,0,VALID,95.1021,VALID,0,VALID,19.3879,VALID,45,VALID,1.10234,
2009-11-22, 00:28:04,VALID,918.291,VALID,0,VALID,95.1021,VALID,0,VALID,19.4088,VALID,24,VALID,1.44062,
2009-11-22, 00:29:04,VALID,918.306,VALID,0,VALID,95.1097,VALID,0,VALID,19.4283,VALID,24,VALID,1.15352,
2009-11-22, 00:30:04,VALID,918.312,VALID,0,VALID,95.2241,VALID,0,VALID,19.4283,VALID,24,VALID,1.32227,
2009-11-22, 00:31:04,VALID,918.312,VALID,0,VALID,95.1326,VALID,0,VALID,19.3879,VALID,8,VALID,1.24922,
2009-11-22, 00:32:04,VALID,918.276,VALID,0,VALID,95.2241,VALID,0,VALID,19.4074,VALID,8,VALID,1.3957,
2009-11-22, 00:33:04,VALID,918.315,VALID,0,VALID,95.186,VALID,0,VALID,19.4074,VALID,356,VALID,0.963672,
2009-11-22, 00:34:04,VALID,918.323,VALID,0,VALID,95.1631,VALID,0,VALID,19.4074,VALID,356,VALID,0.488281,
2009-11-22, 00:35:04,VALID,918.329,VALID,0,VALID,95.1707,VALID,0,VALID,19.4283,VALID,356,VALID,0.988281,
2009-11-22, 00:36:04,VALID,918.307,VALID,0,VALID,95.1097,VALID,0,VALID,19.4088,VALID,356,VALID,0.819141,
2009-11-22, 00:37:04,VALID,918.264,VALID,0,VALID,95.1174,VALID,0,VALID,19.3893,VALID,356,VALID,1.3332,
2009-11-22, 00:38:04,VALID,918.316,VALID,0,VALID,95.3842,VALID,0,VALID,19.3489,VALID,356,VALID,1.10625,
2009-11-22, 00:39:04,VALID,918.23,VALID,0,VALID,95.5519,VALID,0,VALID,19.3503,VALID,356,VALID,1.1082,
2009-11-22, 00:40:04,VALID,918.268,VALID,0,VALID,95.6053,VALID,0,VALID,19.3294,VALID,354,VALID,1.73398,
2009-11-22, 00:41:04,VALID,918.253,VALID,0,VALID,95.3994,VALID,0,VALID,19.3308,VALID,354,VALID,1.50234,
2009-11-22, 00:42:04,VALID,918.216,VALID,0,VALID,95.3613,VALID,0,VALID,19.3503,VALID,354,VALID,1.37812,
2009-11-22, 00:43:04,VALID,918.196,VALID,0,VALID,95.2088,VALID,0,VALID,19.3294,VALID,354,VALID,1.17617,
2009-11-22, 00:44:04,VALID,918.148,VALID,0,VALID,95.064,VALID,0.107441,VALID,19.3099,VALID,29,VALID,1.97383,
2009-11-22, 00:45:04,VALID,918.178,VALID,0,VALID,94.9496,VALID,0,VALID,19.3294,VALID,27,VALID,1.88203,
2009-11-22, 00:46:04,VALID,918.209,VALID,0,VALID,94.8429,VALID,0,VALID,19.3503,VALID,12,VALID,1.32734,
2009-11-22, 00:47:04,VALID,918.213,VALID,0,VALID,94.8048,VALID,0,VALID,19.3489,VALID,11,VALID,1.02578,
2009-11-22, 00:48:04,VALID,918.211,VALID,0,VALID,94.7057,VALID,0,VALID,19.3893,VALID,11,VALID,1.24727,
2009-11-22, 00:49:04,VALID,918.221,VALID,0,VALID,94.8353,VALID,0,VALID,19.3684,VALID,11,VALID,1.13281,
2009-11-22, 00:50:04,VALID,918.247,VALID,0,VALID,94.6523,VALID,0,VALID,19.3698,VALID,360,VALID,1.39961,
2009-11-22, 00:51:04,VALID,918.316,VALID,0,VALID,94.7209,VALID,0,VALID,19.3489,VALID,10,VALID,1.41836,
2009-11-22, 00:52:04,VALID,918.287,VALID,0,VALID,95.0259,VALID,0,VALID,19.3489,VALID,9,VALID,1.2207,
2009-11-22, 00:53:04,VALID,918.211,VALID,0,VALID,95.1174,VALID,0,VALID,19.3503,VALID,5,VALID,1.2707,
2009-11-22, 00:54:04,VALID,918.249,VALID,0,VALID,95.1707,VALID,0,VALID,19.3294,VALID,5,VALID,0.25,
2009-11-22, 00:55:04,VALID,918.228,VALID,0,VALID,95.1326,VALID,0,VALID,19.3294,VALID,5,VALID,0.20625,
2009-11-22, 00:56:04,VALID,918.218,VALID,0,VALID,95.2546,VALID,0,VALID,19.3489,VALID,5,VALID,0.925391,
2009-11-22, 00:57:04,VALID,918.197,VALID,0,VALID,95.2546,VALID,0,VALID,19.3698,VALID,5,VALID,1.41094,
2009-11-22, 00:58:04,VALID,918.179,VALID,0,VALID,95.4452,VALID,0,VALID,19.3698,VALID,5,VALID,1.69609,
2009-11-22, 00:59:04,VALID,918.159,VALID,0,VALID,95.5976,VALID,0,VALID,19.3294,VALID,32,VALID,1.52109,
2009-11-22, 01:00:04,VALID,918.103,VALID,0,VALID,95.6586,VALID,0,VALID,19.3099,VALID,41,VALID,1.13125,
2009-11-22, 01:01:04,VALID,918.086,VALID,0,VALID,95.8035,VALID,0,VALID,19.3308,VALID,41,VALID,1.17305,
2009-11-22, 01:02:04,VALID,917.997,VALID,0,VALID,95.8492,VALID,0,VALID,19.3099,VALID,41,VALID,0.988281,
2009-11-22, 01:03:04,VALID,917.955,VALID,0,VALID,95.9483,VALID,0,VALID,19.2904,VALID,41,VALID,1.42188,
2009-11-22, 01:04:04,VALID,917.908,VALID,0,VALID,96.0169,VALID,0,VALID,19.3113,VALID,41,VALID,0.669922,
2009-11-22, 01:05:04,VALID,917.847,VALID,0,VALID,95.9864,VALID,0,VALID,19.2709,VALID,41,VALID,1.66836,
2009-11-22, 01:06:04,VALID,917.836,VALID,0,VALID,95.9864,VALID,0,VALID,19.2528,VALID,41,VALID,1.29609,
2009-11-22, 01:07:04,VALID,917.818,VALID,0,VALID,96.0017,VALID,0,VALID,19.2334,VALID,42,VALID,0.539453,
2009-11-22, 01:08:04,VALID,917.789,VALID,0,VALID,95.8797,VALID,0,VALID,19.2139,VALID,42,VALID,1.25977,
2009-11-22, 01:09:04,VALID,917.827,VALID,0,VALID,95.8873,VALID,0,VALID,19.1944,VALID,43,VALID,0.176172,
2009-11-22, 01:10:04,VALID,917.813,VALID,0,VALID,95.8416,VALID,0,VALID,19.2139,VALID,43,VALID,0.386719,
2009-11-22, 01:11:04,VALID,917.791,VALID,0,VALID,95.7654,VALID,0,VALID,19.1929,VALID,47,VALID,1.28125,
2009-11-22, 01:12:04,VALID,917.796,VALID,0,VALID,95.8568,VALID,0,VALID,19.2139,VALID,47,VALID,1.14219,
2009-11-22, 01:13:04,VALID,917.834,VALID,0,VALID,95.8263,VALID,0,VALID,19.2334,VALID,47,VALID,1.32617,
2009-11-22, 01:14:04,VALID,917.809,VALID,0,VALID,95.6967,VALID,0,VALID,19.1734,VALID,29,VALID,2.15469,
2009-11-22, 01:15:04,VALID,917.83,VALID,0,VALID,95.7654,VALID,0,VALID,19.1929,VALID,31,VALID,1.35469,
2009-11-22, 01:16:04,VALID,917.81,VALID,0,VALID,95.6129,VALID,0.107441,VALID,19.1944,VALID,36,VALID,1.11602,
2009-11-22, 01:17:04,VALID,917.778,VALID,0,VALID,95.4147,VALID,0,VALID,19.1734,VALID,32,VALID,2.00781,
2009-11-22, 01:18:04,VALID,917.751,VALID,0,VALID,95.2775,VALID,0,VALID,19.2124,VALID,10,VALID,2.18203,
2009-11-22, 01:19:04,VALID,917.728,VALID,0,VALID,95.2012,VALID,0,VALID,19.2334,VALID,35,VALID,1.22734,
2009-11-22, 01:20:04,VALID,917.709,VALID,0,VALID,94.9573,VALID,0,VALID,19.2334,VALID,35,VALID,1.27461,
2009-11-22, 01:21:04,VALID,917.718,VALID,0,VALID,94.942,VALID,0,VALID,19.2528,VALID,52,VALID,1.09687,
2009-11-22, 01:22:04,VALID,917.706,VALID,0,VALID,94.881,VALID,0,VALID,19.2528,VALID,18,VALID,1.425,
2009-11-22, 01:23:04,VALID,917.69,VALID,0,VALID,94.7667,VALID,0,VALID,19.2319,VALID,234,VALID,0.836328,
2009-11-22, 01:24:04,VALID,917.646,VALID,0,VALID,94.6066,VALID,0,VALID,19.2528,VALID,244,VALID,0.677344,
2009-11-22, 01:25:04,VALID,917.651,VALID,0,VALID,94.6447,VALID,0.107441,VALID,19.2514,VALID,350,VALID,0.69375,
2009-11-22, 01:26:04,VALID,917.613,VALID,0,VALID,94.7438,VALID,0,VALID,19.2319,VALID,350,VALID,0.867578,
2009-11-22, 01:27:04,VALID,917.6,VALID,0,VALID,94.8353,VALID,0,VALID,19.1944,VALID,350,VALID,0.956641,
2009-11-22, 01:28:04,VALID,917.638,VALID,0,VALID,94.8887,VALID,0,VALID,19.1944,VALID,305,VALID,1.03203,
2009-11-22, 01:29:04,VALID,917.621,VALID,0,VALID,94.7743,VALID,0,VALID,19.1944,VALID,301,VALID,0.718359,
2009-11-22, 01:30:05,VALID,917.655,VALID,0,VALID,94.8124,VALID,0,VALID,19.2139,VALID,301,VALID,0.727344,
2009-11-22, 01:31:05,VALID,917.631,VALID,0,VALID,94.9344,VALID,0,VALID,19.1734,VALID,301,VALID,1.12656,
2009-11-22, 01:32:05,VALID,917.673,VALID,0,VALID,95.0945,VALID,0,VALID,19.1749,VALID,301,VALID,0.741406,
2009-11-22, 01:33:05,VALID,917.647,VALID,0,VALID,95.0488,VALID,0,VALID,19.1554,VALID,301,VALID,0.764844,
2009-11-22, 01:34:05,VALID,917.649,VALID,0,VALID,95.0488,VALID,0,VALID,19.1554,VALID,299,VALID,0.974609,
2009-11-22, 01:35:05,VALID,917.672,VALID,0,VALID,95.1097,VALID,0,VALID,19.1344,VALID,294,VALID,0.25,
2009-11-22, 01:36:05,VALID,917.644,VALID,0,VALID,95.1631,VALID,0,VALID,19.1554,VALID,295,VALID,0.589844,
2009-11-22, 01:37:05,VALID,917.636,VALID,0,VALID,94.881,VALID,0,VALID,19.1344,VALID,240,VALID,1.67813,
2009-11-22, 01:38:05,VALID,917.643,VALID,0,VALID,94.881,VALID,0,VALID,19.2139,VALID,3,VALID,0.856641,
2009-11-22, 01:39:05,VALID,917.613,VALID,0,VALID,94.7362,VALID,0,VALID,19.2334,VALID,52,VALID,0.921875,
2009-11-22, 01:40:05,VALID,917.659,VALID,0,VALID,94.6828,VALID,0,VALID,19.2334,VALID,44,VALID,1.49219,
2009-11-22, 01:41:05,VALID,917.646,VALID,0,VALID,94.5075,VALID,0,VALID,19.1944,VALID,35,VALID,1.55664,
2009-11-22, 01:42:05,VALID,917.667,VALID,0,VALID,94.4313,VALID,0,VALID,19.2124,VALID,39,VALID,0.898438,
2009-11-22, 01:43:05,VALID,917.666,VALID,0,VALID,94.3093,VALID,0,VALID,19.2319,VALID,27,VALID,2.94453,
2009-11-22, 01:44:05,VALID,917.684,VALID,0,VALID,93.89,VALID,0,VALID,19.2514,VALID,342,VALID,1.34531,
2009-11-22, 01:45:05,VALID,917.734,VALID,0,VALID,93.4783,VALID,0,VALID,19.2723,VALID,307,VALID,1.10195,
2009-11-22, 01:46:05,VALID,917.721,VALID,0,VALID,93.4021,VALID,0,VALID,19.3503,VALID,357,VALID,1.42422,
2009-11-22, 01:47:05,VALID,917.657,VALID,0,VALID,93.2115,VALID,0,VALID,19.3698,VALID,22,VALID,1.90781,
2009-11-22, 01:48:05,VALID,917.695,VALID,0,VALID,93.2268,VALID,0,VALID,19.4088,VALID,5,VALID,1.41016,
2009-11-22, 01:49:05,VALID,917.654,VALID,0,VALID,93.3487,VALID,0,VALID,19.3684,VALID,20,VALID,1.96016,
2009-11-22, 01:50:05,VALID,917.652,VALID,0,VALID,93.2496,VALID,0,VALID,19.3893,VALID,9,VALID,2.03281,
2009-11-22, 01:51:05,VALID,917.668,VALID,0,VALID,93.4097,VALID,0,VALID,19.3879,VALID,11,VALID,0.910547,
2009-11-22, 01:52:05,VALID,917.661,VALID,0,VALID,93.6308,VALID,0,VALID,19.3684,VALID,38,VALID,1.40898,
2009-11-22, 01:53:05,VALID,917.678,VALID,0,VALID,93.6689,VALID,0,VALID,19.3294,VALID,12,VALID,1.80859,
2009-11-22, 01:54:05,VALID,917.689,VALID,0,VALID,93.9205,VALID,0.107441,VALID,19.3099,VALID,10,VALID,0.78125,
2009-11-22, 01:55:05,VALID,917.657,VALID,0,VALID,93.768,VALID,0,VALID,19.3099,VALID,11,VALID,0.941406,
2009-11-22, 01:56:05,VALID,917.627,VALID,0,VALID,93.9205,VALID,0,VALID,19.3308,VALID,19,VALID,1.23867,
2009-11-22, 01:57:05,VALID,917.629,VALID,0,VALID,93.1581,VALID,0,VALID,19.3294,VALID,39,VALID,2.68359,
2009-11-22, 01:58:05,VALID,917.636,VALID,0,VALID,92.8837,VALID,0.107441,VALID,19.3879,VALID,7,VALID,1.99648,
2009-11-22, 01:59:05,VALID,917.669,VALID,0,VALID,93.2725,VALID,0,VALID,19.4283,VALID,329,VALID,1.22656,
2009-11-22, 02:00:05,VALID,917.657,VALID,0,VALID,93.425,VALID,0,VALID,19.3879,VALID,329,VALID,1.33008,
2009-11-22, 02:01:05,VALID,917.679,VALID,0,VALID,93.303,VALID,0,VALID,19.3684,VALID,327,VALID,1.23984,
2009-11-22, 02:02:05,VALID,917.623,VALID,0,VALID,93.2572,VALID,0,VALID,19.3879,VALID,335,VALID,1.68633,
2009-11-22, 02:03:05,VALID,917.658,VALID,0,VALID,93.1886,VALID,0,VALID,19.3893,VALID,344,VALID,1.20938,
2009-11-22, 02:04:05,VALID,917.657,VALID,0,VALID,93.303,VALID,0,VALID,19.4088,VALID,343,VALID,0.404297,
2009-11-22, 02:05:05,VALID,917.677,VALID,0,VALID,93.4021,VALID,0,VALID,19.4088,VALID,343,VALID,0.664844,
2009-11-22, 02:06:05,VALID,917.635,VALID,0,VALID,93.3868,VALID,0,VALID,19.3684,VALID,356,VALID,1.13984,
2009-11-22, 02:07:05,VALID,917.657,VALID,0,VALID,93.7147,VALID,0,VALID,19.3698,VALID,25,VALID,1.13945,
2009-11-22, 02:08:05,VALID,917.642,VALID,0,VALID,93.951,VALID,0,VALID,19.3294,VALID,17,VALID,1.67227,
2009-11-22, 02:09:05,VALID,917.633,VALID,0,VALID,93.9891,VALID,0,VALID,19.3308,VALID,14,VALID,1.01016,
2009-11-22, 02:10:05,VALID,917.656,VALID,0,VALID,93.89,VALID,0,VALID,19.3308,VALID,344,VALID,1.25,
2009-11-22, 02:11:05,VALID,917.675,VALID,0,VALID,93.4326,VALID,0,VALID,19.3503,VALID,349,VALID,1.27188,
2009-11-22, 02:12:05,VALID,917.658,VALID,0,VALID,93.5012,VALID,0,VALID,19.3698,VALID,5,VALID,1.59609,
2009-11-22, 02:13:05,VALID,917.695,VALID,0,VALID,93.7375,VALID,0,VALID,19.3489,VALID,321,VALID,0.920703,
2009-11-22, 02:14:05,VALID,917.681,VALID,0,VALID,93.7299,VALID,0,VALID,19.3503,VALID,6,VALID,1.41445,
2009-11-22, 02:15:05,VALID,917.695,VALID,0,VALID,93.5088,VALID,0,VALID,19.3503,VALID,4,VALID,1.21758,
2009-11-22, 02:16:05,VALID,917.695,VALID,0,VALID,93.5469,VALID,0,VALID,19.3698,VALID,6,VALID,0.371484,
2009-11-22, 02:17:05,VALID,917.673,VALID,0,VALID,93.7528,VALID,0,VALID,19.3698,VALID,6,VALID,0.546094,
2009-11-22, 02:18:05,VALID,917.672,VALID,0,VALID,94.0272,VALID,0,VALID,19.3698,VALID,6,VALID,0.535937,
2009-11-22, 02:19:05,VALID,917.689,VALID,0,VALID,94.2483,VALID,0,VALID,19.3503,VALID,6,VALID,0.625781,
2009-11-22, 02:20:05,VALID,917.665,VALID,0,VALID,94.3626,VALID,0,VALID,19.3503,VALID,6,VALID,0.856641,
2009-11-22, 02:21:05,VALID,917.715,VALID,0,VALID,94.6066,VALID,0,VALID,19.3099,VALID,6,VALID,0.365234,
2009-11-22, 02:22:05,VALID,917.687,VALID,0,VALID,94.8734,VALID,0,VALID,19.3113,VALID,44,VALID,1.46953,
2009-11-22, 02:23:05,VALID,917.676,VALID,0,VALID,94.8124,VALID,0,VALID,19.2904,VALID,20,VALID,1.58984,
2009-11-22, 02:24:05,VALID,917.651,VALID,0,VALID,94.4236,VALID,0,VALID,19.2319,VALID,19,VALID,1.00078,
2009-11-22, 02:25:05,VALID,917.666,VALID,0,VALID,94.0806,VALID,0,VALID,19.2723,VALID,10,VALID,2.07969,
2009-11-22, 02:26:05,VALID,917.705,VALID,0,VALID,93.9586,VALID,0,VALID,19.3113,VALID,17,VALID,0.731641,
2009-11-22, 02:27:05,VALID,917.744,VALID,0,VALID,93.9815,VALID,0,VALID,19.3113,VALID,18,VALID,0.3375,
2009-11-22, 02:28:05,VALID,917.685,VALID,0,VALID,94.073,VALID,0,VALID,19.3308,VALID,31,VALID,1.69922,
2009-11-22, 02:29:05,VALID,917.724,VALID,0,VALID,94.1263,VALID,0,VALID,19.2918,VALID,12,VALID,1.6293,
2009-11-22, 02:30:05,VALID,917.718,VALID,0,VALID,94.1568,VALID,0,VALID,19.2514,VALID,19,VALID,1.65625,
2009-11-22, 02:31:05,VALID,917.753,VALID,0,VALID,94.1949,VALID,0,VALID,19.2319,VALID,33,VALID,1.30586,
2009-11-22, 02:32:05,VALID,917.783,VALID,0,VALID,94.2635,VALID,0,VALID,19.2723,VALID,270,VALID,0.48125,
2009-11-22, 02:33:05,VALID,917.778,VALID,0,VALID,94.355,VALID,0,VALID,19.2514,VALID,270,VALID,0.665625,
2009-11-22, 02:34:05,VALID,917.81,VALID,0,VALID,94.6295,VALID,0,VALID,19.2918,VALID,6,VALID,0.840625,
2009-11-22, 02:35:05,VALID,917.814,VALID,0,VALID,94.7286,VALID,0,VALID,19.2723,VALID,359,VALID,0.350391,
2009-11-22, 02:36:05,VALID,917.793,VALID,0,VALID,94.6142,VALID,0,VALID,19.2528,VALID,26,VALID,1.65039,
2009-11-22, 02:37:05,VALID,917.812,VALID,0,VALID,94.5913,VALID,0,VALID,19.2528,VALID,19,VALID,0.575,
2009-11-22, 02:38:05,VALID,917.806,VALID,0,VALID,94.4694,VALID,0,VALID,19.2528,VALID,24,VALID,1.24492,
2009-11-22, 02:39:05,VALID,917.77,VALID,0,VALID,94.8277,VALID,0,VALID,19.2528,VALID,30,VALID,1.97969,
2009-11-22, 02:40:05,VALID,917.75,VALID,0,VALID,95.0488,VALID,0,VALID,19.2319,VALID,29,VALID,1.45195,
2009-11-22, 02:41:05,VALID,917.839,VALID,0,VALID,94.9039,VALID,0,VALID,19.2334,VALID,324,VALID,0.974609,
2009-11-22, 02:42:05,VALID,917.812,VALID,0,VALID,95.2012,VALID,0,VALID,19.2334,VALID,346,VALID,1.02617,
2009-11-22, 02:43:05,VALID,917.775,VALID,0,VALID,95.3842,VALID,0,VALID,19.2139,VALID,351,VALID,0.844141,
2009-11-22, 02:44:05,VALID,917.792,VALID,0,VALID,95.4452,VALID,0,VALID,19.2139,VALID,344,VALID,2.14609,
2009-11-22, 02:45:05,VALID,917.834,VALID,0,VALID,95.4985,VALID,0,VALID,19.1554,VALID,26,VALID,1.73828,
2009-11-22, 02:46:05,VALID,917.793,VALID,0,VALID,95.6891,VALID,0,VALID,19.1344,VALID,338,VALID,2.97148,
2009-11-22, 02:47:05,VALID,917.767,VALID,0,VALID,95.7501,VALID,0,VALID,19.1359,VALID,1,VALID,0.717578,
2009-11-22, 02:48:05,VALID,917.772,VALID,0,VALID,95.59,VALID,0,VALID,19.0954,VALID,196,VALID,2.05,
2009-11-22, 02:49:05,VALID,917.796,VALID,0,VALID,95.8035,VALID,0,VALID,19.1149,VALID,29,VALID,1.95977,
2009-11-22, 02:50:05,VALID,917.845,VALID,0,VALID,95.9102,VALID,0,VALID,19.0954,VALID,38,VALID,1.80586,
2009-11-22, 02:51:05,VALID,917.81,VALID,0,VALID,96.0245,VALID,0,VALID,19.0969,VALID,18,VALID,2.22617,
2009-11-22, 02:52:05,VALID,917.819,VALID,0,VALID,96.1923,VALID,0,VALID,19.0774,VALID,66,VALID,1.85312,
2009-11-22, 02:53:05,VALID,917.821,VALID,0,VALID,96.1541,VALID,0,VALID,19.0384,VALID,109,VALID,0.673828,
2009-11-22, 02:54:05,VALID,917.865,VALID,0,VALID,96.238,VALID,0,VALID,19.0369,VALID,40,VALID,2.04648,
2009-11-22, 02:55:05,VALID,917.897,VALID,0,VALID,96.2685,VALID,0,VALID,19.0579,VALID,68,VALID,1.06836,
2009-11-22, 02:56:05,VALID,917.862,VALID,0,VALID,96.3066,VALID,0,VALID,19.0579,VALID,68,VALID,0.767187,
2009-11-22, 02:57:05,VALID,917.87,VALID,0,VALID,96.2533,VALID,0,VALID,19.0175,VALID,68,VALID,0.974609,
2009-11-22, 02:58:05,VALID,917.851,VALID,0,VALID,96.3752,VALID,0,VALID,19.0384,VALID,26,VALID,1.8793,
2009-11-22, 02:59:05,VALID,917.893,VALID,0,VALID,96.4133,VALID,0,VALID,19.0369,VALID,247,VALID,0.998438,
2009-11-22, 03:00:05,VALID,917.836,VALID,0,VALID,96.3676,VALID,0,VALID,19.0189,VALID,30,VALID,2.13398,
2009-11-22, 03:01:05,VALID,917.849,VALID,0,VALID,96.4591,VALID,0,VALID,19.0175,VALID,334,VALID,1.16289,
2009-11-22, 03:02:05,VALID,917.803,VALID,0,VALID,96.4591,VALID,0,VALID,19.0175,VALID,68,VALID,1.53477,
2009-11-22, 03:03:05,VALID,917.831,VALID,0,VALID,96.5658,VALID,0,VALID,19.0189,VALID,21,VALID,1.79961,
2009-11-22, 03:04:05,VALID,917.846,VALID,0,VALID,96.5429,VALID,0,VALID,19.0189,VALID,51,VALID,1.61875,
2009-11-22, 03:05:05,VALID,917.777,VALID,0,VALID,96.4896,VALID,0,VALID,19.0189,VALID,71,VALID,1.62617,
2009-11-22, 03:06:05,VALID,917.768,VALID,0,VALID,96.5658,VALID,0,VALID,19.0189,VALID,24,VALID,3.00469,
2009-11-22, 03:07:05,VALID,917.803,VALID,0,VALID,96.5506,VALID,0,VALID,18.9994,VALID,296,VALID,0.714453,
2009-11-22, 03:08:05,VALID,917.791,VALID,0,VALID,96.5429,VALID,0,VALID,18.9994,VALID,26,VALID,1.40156,
2009-11-22, 03:09:05,VALID,917.751,VALID,0,VALID,96.5429,VALID,0,VALID,18.9785,VALID,34,VALID,2.39766,
2009-11-22, 03:10:05,VALID,917.722,VALID,0,VALID,96.5658,VALID,0,VALID,18.959,VALID,29,VALID,1.71406,
2009-11-22, 03:11:05,VALID,917.784,VALID,0,VALID,96.6497,VALID,0,VALID,18.959,VALID,5,VALID,2.34883,
2009-11-22, 03:12:05,VALID,917.818,VALID,0,VALID,96.6192,VALID,0,VALID,18.9799,VALID,27,VALID,2.05391,
2009-11-22, 03:13:05,VALID,917.76,VALID,0,VALID,96.642,VALID,0,VALID,18.9994,VALID,33,VALID,2.16641,
2009-11-22, 03:14:05,VALID,917.79,VALID,0,VALID,96.6497,VALID,0,VALID,18.9799,VALID,26,VALID,0.509375,
2009-11-22, 03:15:05,VALID,917.784,VALID,0,VALID,96.642,VALID,0,VALID,18.9799,VALID,26,VALID,1.37031,
2009-11-22, 03:16:05,VALID,917.786,VALID,0,VALID,96.6039,VALID,0,VALID,18.9994,VALID,340,VALID,0.8875,
2009-11-22, 03:17:05,VALID,917.792,VALID,0,VALID,96.5658,VALID,0,VALID,18.9604,VALID,9,VALID,1.31641,
2009-11-22, 03:18:05,VALID,917.786,VALID,0,VALID,96.6344,VALID,0,VALID,18.9604,VALID,16,VALID,0.761328,
2009-11-22, 03:19:05,VALID,917.773,VALID,0,VALID,96.6878,VALID,0,VALID,18.9604,VALID,16,VALID,0.598437,
2009-11-22, 03:20:05,VALID,917.692,VALID,0,VALID,96.6878,VALID,0,VALID,18.9604,VALID,31,VALID,1.55742,
2009-11-22, 03:21:05,VALID,917.706,VALID,0,VALID,96.6115,VALID,0,VALID,18.92,VALID,342,VALID,2.0543,
2009-11-22, 03:22:05,VALID,917.765,VALID,0,VALID,96.6497,VALID,0,VALID,18.9604,VALID,27,VALID,2.32617,
2009-11-22, 03:23:05,VALID,917.721,VALID,0,VALID,96.6039,VALID,0,VALID,18.9604,VALID,24,VALID,0.9625,
2009-11-22, 03:24:05,VALID,917.76,VALID,0,VALID,96.6497,VALID,0,VALID,18.9604,VALID,40,VALID,1.3543,
2009-11-22, 03:25:05,VALID,917.743,VALID,0,VALID,96.642,VALID,0,VALID,18.9604,VALID,342,VALID,1.65742,
2009-11-22, 03:26:05,VALID,917.783,VALID,0,VALID,96.642,VALID,0,VALID,18.9604,VALID,209,VALID,0.419141,
2009-11-22, 03:27:05,VALID,917.666,VALID,0,VALID,96.6573,VALID,0,VALID,18.9604,VALID,191,VALID,0.532422,
2009-11-22, 03:28:05,VALID,917.698,VALID,0,VALID,96.6115,VALID,0,VALID,18.9409,VALID,16,VALID,1.60039,
2009-11-22, 03:29:05,VALID,917.748,VALID,0,VALID,96.6878,VALID,0,VALID,18.9409,VALID,344,VALID,0.745703,
2009-11-22, 03:30:05,VALID,917.701,VALID,0,VALID,96.6802,VALID,0,VALID,18.9005,VALID,27,VALID,2.09258,
2009-11-22, 03:31:05,VALID,917.713,VALID,0,VALID,96.7335,VALID,0,VALID,18.9214,VALID,55,VALID,1.14805,
2009-11-22, 03:32:05,VALID,917.726,VALID,0,VALID,96.6954,VALID,0,VALID,18.9019,VALID,116,VALID,1.17461,
2009-11-22, 03:33:05,VALID,917.743,VALID,0,VALID,96.7107,VALID,0,VALID,18.8824,VALID,167,VALID,0.474609,
2009-11-22, 03:34:05,VALID,917.707,VALID,0,VALID,96.6573,VALID,0,VALID,18.9019,VALID,220,VALID,1.17031,
2009-11-22, 03:35:05,VALID,917.719,VALID,0,VALID,96.5963,VALID,0,VALID,18.8824,VALID,24,VALID,1.01875,
2009-11-22, 03:36:05,VALID,917.704,VALID,0,VALID,96.6039,VALID,0,VALID,18.8824,VALID,5,VALID,1.10547,
2009-11-22, 03:37:05,VALID,917.731,VALID,0,VALID,96.6115,VALID,0,VALID,18.8629,VALID,3,VALID,1.2082,
2009-11-22, 03:38:05,VALID,917.72,VALID,0,VALID,96.6649,VALID,0,VALID,18.842,VALID,2,VALID,0.822656,
2009-11-22, 03:39:05,VALID,917.737,VALID,0,VALID,96.7488,VALID,0,VALID,18.8629,VALID,176,VALID,0.384766,
2009-11-22, 03:40:05,VALID,917.751,VALID,0,VALID,96.6344,VALID,0,VALID,18.8225,VALID,82,VALID,0.846484,
2009-11-22, 03:41:05,VALID,917.776,VALID,0,VALID,96.5506,VALID,0,VALID,18.8434,VALID,143,VALID,0.633594,
2009-11-22, 03:42:05,VALID,917.776,VALID,0,VALID,96.5048,VALID,0,VALID,18.8434,VALID,33,VALID,1.41797,
2009-11-22, 03:43:05,VALID,917.802,VALID,0,VALID,96.5963,VALID,0,VALID,18.8629,VALID,34,VALID,0.768359,
2009-11-22, 03:44:05,VALID,917.845,VALID,0,VALID,96.5124,VALID,0,VALID,18.8824,VALID,57,VALID,1.13906,
2009-11-22, 03:45:05,VALID,917.789,VALID,0,VALID,96.3905,VALID,0,VALID,18.8629,VALID,28,VALID,1.87461,
2009-11-22, 03:46:05,VALID,917.851,VALID,0,VALID,96.421,VALID,0,VALID,18.8629,VALID,162,VALID,0.660937,
2009-11-22, 03:47:05,VALID,917.885,VALID,0,VALID,96.4896,VALID,0,VALID,18.8824,VALID,15,VALID,1.14844,